| time (UTC) | temp F | wind direction | speed knots | gust knots | rain 1hr in | rain 24hr in | rain mn in | humidity % | barometer mb |
| 20260505102004 | 59 | 8 | 0.0 | 1.7 | 0.00 | 0.01 | 0.01 | 70 | 1021.7 |
| 20260505101503 | 59 | 4 | 0.0 | 1.7 | 0.00 | 0.01 | 0.01 | 69 | 1021.8 |
| 20260505101003 | 59 | 8 | 0.0 | 0.9 | 0.00 | 0.01 | 0.01 | 69 | 1021.8 |
| 20260505100504 | 59 | 8 | 0.0 | 0.9 | 0.00 | 0.01 | 0.01 | 69 | 1021.8 |
| 20260505100011 | 59 | 8 | 0.0 | 1.7 | 0.00 | 0.01 | 0.01 | 69 | 1021.8 |
| 20260505095502 | 59 | 9 | 0.0 | 1.7 | 0.00 | 0.01 | 0.01 | 68 | 1021.9 |
| 20260505095004 | 59 | 9 | 0.0 | 1.7 | 0.00 | 0.01 | 0.01 | 68 | 1022.0 |
| 20260505094503 | 59 | 8 | 0.0 | 1.7 | 0.00 | 0.01 | 0.01 | 68 | 1021.8 |
| 20260505094003 | 60 | 8 | 0.0 | 1.7 | 0.00 | 0.01 | 0.01 | 68 | 1021.9 |
| 20260505093503 | 59 | 8 | 0.9 | 1.7 | 0.00 | 0.01 | 0.01 | 68 | 1021.8 |
| 20260505093003 | 59 | 359 | 0.0 | 1.7 | 0.00 | 0.01 | 0.01 | 68 | 1021.6 |
| 20260505092502 | 60 | 8 | 0.0 | 1.7 | 0.00 | 0.01 | 0.01 | 68 | 1021.7 |
| 20260505092003 | 60 | 4 | 0.0 | 1.7 | 0.00 | 0.01 | 0.01 | 67 | 1021.7 |
| 20260505091502 | 60 | 8 | 0.9 | 1.7 | 0.00 | 0.01 | 0.01 | 67 | 1021.7 |
| 20260505091003 | 60 | 8 | 0.0 | 1.7 | 0.00 | 0.01 | 0.01 | 67 | 1021.7 |
| 20260505090503 | 60 | 8 | 0.0 | 1.7 | 0.00 | 0.01 | 0.01 | 66 | 1021.6 |
| 20260505090005 | 60 | 8 | 0.0 | 1.7 | 0.00 | 0.01 | 0.01 | 66 | 1021.5 |
| 20260505085503 | 60 | 8 | 0.0 | 1.7 | 0.00 | 0.01 | 0.01 | 66 | 1021.6 |
| 20260505085003 | 60 | 9 | 0.0 | 1.7 | 0.00 | 0.01 | 0.01 | 66 | 1021.5 |
| 20260505084503 | 60 | 8 | 0.0 | 1.7 | 0.00 | 0.01 | 0.01 | 66 | 1021.6 |
| 20260505084004 | 60 | 8 | 0.0 | 1.7 | 0.00 | 0.01 | 0.01 | 66 | 1021.4 |
| 20260505083502 | 60 | 8 | 0.0 | 1.7 | 0.00 | 0.01 | 0.01 | 66 | 1021.3 |
| 20260505083007 | 60 | 8 | 0.0 | 1.7 | 0.00 | 0.01 | 0.01 | 65 | 1021.3 |
| 20260505082504 | 60 | 8 | 0.9 | 1.7 | 0.00 | 0.01 | 0.01 | 66 | 1021.2 |
| 20260505082003 | 60 | 8 | 0.9 | 1.7 | 0.00 | 0.01 | 0.01 | 66 | 1021.2 |
| 20260505081506 | 60 | 8 | 0.9 | 1.7 | 0.00 | 0.01 | 0.01 | 66 | 1021.2 |
| 20260505081005 | 60 | 8 | 0.0 | 2.6 | 0.00 | 0.01 | 0.01 | 66 | 1021.0 |
| 20260505080504 | 60 | 8 | 0.9 | 2.6 | 0.00 | 0.01 | 0.01 | 66 | 1020.9 |
| 20260505080005 | 60 | 359 | 0.0 | 1.7 | 0.00 | 0.01 | 0.01 | 67 | 1020.9 |
| 20260505075504 | 60 | 354 | 0.9 | 2.6 | 0.00 | 0.02 | 0.01 | 67 | 1020.8 |
| 20260505075007 | 60 | 344 | 0.9 | 2.6 | 0.00 | 0.02 | 0.01 | 67 | 1020.8 |
| 20260505074503 | 60 | 350 | 0.9 | 2.6 | 0.00 | 0.02 | 0.01 | 67 | 1020.9 |
| 20260505074003 | 60 | 359 | 0.9 | 2.6 | 0.00 | 0.02 | 0.01 | 66 | 1020.7 |
| 20260505073503 | 60 | 354 | 0.9 | 2.6 | 0.00 | 0.02 | 0.01 | 66 | 1020.7 |
| 20260505073003 | 61 | 354 | 0.0 | 3.5 | 0.00 | 0.02 | 0.01 | 66 | 1020.7 |
| 20260505072502 | 61 | 335 | 0.9 | 3.5 | 0.00 | 0.02 | 0.01 | 66 | 1020.6 |
| 20260505072003 | 61 | 349 | 0.0 | 2.6 | 0.00 | 0.02 | 0.01 | 66 | 1020.6 |
| 20260505071508 | 61 | 340 | 0.9 | 3.5 | 0.00 | 0.02 | 0.01 | 66 | 1020.6 |
| 20260505071003 | 61 | 349 | 0.9 | 3.5 | 0.00 | 0.02 | 0.01 | 65 | 1020.6 |
| 20260505070503 | 61 | 345 | 0.9 | 2.6 | 0.00 | 0.02 | 0.01 | 65 | 1020.6 |
| 20260505070005 | 61 | 349 | 0.9 | 2.6 | 0.00 | 0.02 | 0.01 | 65 | 1020.6 |
| 20260505065503 | 61 | 324 | 0.9 | 2.6 | 0.00 | 0.03 | 0.01 | 65 | 1020.5 |
| 20260505065002 | 61 | 316 | 0.9 | 2.6 | 0.00 | 0.03 | 0.01 | 65 | 1020.4 |
| 20260505064504 | 61 | 328 | 0.9 | 2.6 | 0.00 | 0.03 | 0.01 | 65 | 1020.4 |
| 20260505064003 | 61 | 301 | 0.9 | 3.5 | 0.00 | 0.03 | 0.01 | 65 | 1020.4 |
| 20260505063503 | 61 | 330 | 0.0 | 3.5 | 0.00 | 0.03 | 0.01 | 66 | 1020.3 |
| 20260505063009 | 61 | 348 | 0.0 | 2.6 | 0.00 | 0.03 | 0.01 | 66 | 1020.3 |
| 20260505062503 | 61 | 348 | 0.9 | 2.6 | 0.00 | 0.03 | 0.01 | 65 | 1020.3 |
| 20260505062002 | 62 | 344 | 0.9 | 2.6 | 0.00 | 0.03 | 0.01 | 64 | 1020.3 |
| 20260505061508 | 62 | 335 | 0.9 | 2.6 | 0.00 | 0.03 | 0.01 | 64 | 1020.2 |
| 20260505061002 | 62 | 347 | 0.0 | 2.6 | 0.00 | 0.03 | 0.01 | 64 | 1020.3 |
| 20260505060506 | 62 | 344 | 0.0 | 2.6 | 0.00 | 0.03 | 0.01 | 64 | 1020.2 |
| 20260505060005 | 62 | 344 | 0.0 | 2.6 | 0.00 | 0.03 | 0.01 | 64 | 1020.2 |
| 20260505055503 | 62 | 316 | 0.0 | 1.7 | 0.00 | 0.03 | 0.01 | 64 | 1020.2 |
| 20260505055003 | 62 | 303 | 0.9 | 3.5 | 0.00 | 0.03 | 0.01 | 64 | 1020.0 |
| 20260505054503 | 62 | 290 | 0.9 | 3.5 | 0.00 | 0.03 | 0.01 | 64 | 1019.9 |
| 20260505054003 | 62 | 268 | 0.9 | 2.6 | 0.00 | 0.03 | 0.01 | 65 | 1020.0 |
| 20260505053502 | 62 | 332 | 0.9 | 2.6 | 0.00 | 0.03 | 0.01 | 65 | 1019.9 |
| 20260505053003 | 62 | 272 | 0.9 | 3.5 | 0.00 | 0.03 | 0.01 | 65 | 1019.9 |
| 20260505052505 | 62 | 297 | 0.0 | 3.5 | 0.00 | 0.03 | 0.01 | 65 | 1019.9 |
| 20260505052003 | 62 | 263 | 0.0 | 3.5 | 0.00 | 0.03 | 0.01 | 65 | 1019.7 |
| 20260505051506 | 62 | 266 | 0.9 | 3.5 | 0.00 | 0.03 | 0.01 | 64 | 1019.7 |
| 20260505051006 | 63 | 266 | 0.9 | 3.5 | 0.00 | 0.03 | 0.01 | 64 | 1019.7 |
| 20260505050502 | 63 | 255 | 0.0 | 3.5 | 0.00 | 0.03 | 0.01 | 64 | 1019.6 |
| 20260505041504 | 63 | 294 | 0.9 | 2.6 | 0.00 | 0.03 | 0.01 | 62 | 1019.3 |
| 20260505041003 | 63 | 287 | 0.9 | 3.5 | 0.00 | 0.03 | 0.01 | 62 | 1019.3 |
| 20260505040503 | 63 | 259 | 0.9 | 3.5 | 0.00 | 0.03 | 0.01 | 61 | 1019.3 |
| 20260505040006 | 64 | 318 | 0.9 | 3.5 | 0.00 | 0.03 | 0.01 | 61 | 1019.3 |
| 20260505035502 | 64 | 256 | 1.7 | 3.5 | 0.00 | 0.03 | 0.01 | 61 | 1019.3 |
| 20260505035001 | 64 | 359 | 0.9 | 3.5 | 0.00 | 0.03 | 0.01 | 61 | 1019.2 |
| 20260505034501 | 64 | 253 | 0.9 | 4.3 | 0.00 | 0.03 | 0.01 | 61 | 1019.2 |
| 20260505034002 | 64 | 308 | 1.7 | 4.3 | 0.00 | 0.03 | 0.01 | 60 | 1019.2 |
| 20260505033502 | 64 | 336 | 0.9 | 3.5 | 0.00 | 0.03 | 0.01 | 59 | 1019.2 |
| 20260505033002 | 64 | 271 | 0.9 | 6.1 | 0.00 | 0.03 | 0.01 | 60 | 1019.2 |
| 20260505032502 | 64 | 268 | 0.9 | 6.1 | 0.00 | 0.03 | 0.01 | 60 | 1019.1 |
| 20260505032004 | 64 | 270 | 0.9 | 4.3 | 0.00 | 0.03 | 0.01 | 61 | 1019.1 |
| 20260505031502 | 64 | 308 | 0.9 | 3.5 | 0.00 | 0.03 | 0.01 | 61 | 1019.1 |
| 20260505030502 | 64 | 345 | 0.9 | 7.0 | 0.00 | 0.03 | 0.01 | 59 | 1019.1 |
| 20260505030015 | 64 | 288 | 0.9 | 7.0 | 0.00 | 0.03 | 0.01 | 59 | 1019.0 |
| 20260505025504 | 64 | 359 | 0.0 | 3.5 | 0.00 | 0.03 | 0.01 | 61 | 1019.1 |
| 20260505025002 | 64 | 282 | 0.9 | 4.3 | 0.00 | 0.03 | 0.01 | 59 | 1019.1 |
| 20260505024502 | 64 | 264 | 0.9 | 4.3 | 0.00 | 0.03 | 0.01 | 60 | 1019.1 |
| 20260505024002 | 64 | 333 | 0.9 | 7.8 | 0.00 | 0.03 | 0.01 | 59 | 1019.2 |
| 20260505023502 | 64 | 268 | 1.7 | 7.8 | 0.00 | 0.03 | 0.01 | 60 | 1019.1 |
| 20260505023002 | 64 | 293 | 0.9 | 5.2 | 0.00 | 0.03 | 0.01 | 61 | 1019.1 |
| 20260505022502 | 63 | 311 | 1.7 | 5.2 | 0.00 | 0.03 | 0.01 | 61 | 1019.2 |
| 20260505022002 | 63 | 343 | 0.9 | 5.2 | 0.00 | 0.03 | 0.01 | 62 | 1019.3 |
| 20260505021502 | 63 | 330 | 0.9 | 3.5 | 0.00 | 0.03 | 0.01 | 63 | 1019.3 |
| 20260505021002 | 62 | 297 | 1.7 | 5.2 | 0.00 | 0.03 | 0.01 | 63 | 1019.3 |
| 20260505020502 | 62 | 316 | 1.7 | 8.7 | 0.00 | 0.03 | 0.01 | 63 | 1019.3 |
| 20260505020004 | 62 | 306 | 0.9 | 4.3 | 0.00 | 0.03 | 0.01 | 64 | 1019.4 |
| 20260505015502 | 61 | 359 | 1.7 | 4.3 | 0.00 | 0.03 | 0.01 | 65 | 1019.6 |
| 20260505015002 | 61 | 9 | 1.7 | 5.2 | 0.00 | 0.03 | 0.01 | 66 | 1019.6 |
| 20260505014502 | 60 | 325 | 0.9 | 5.2 | 0.00 | 0.03 | 0.01 | 67 | 1019.8 |
| 20260505014002 | 60 | 321 | 0.9 | 7.0 | 0.00 | 0.03 | 0.01 | 67 | 1019.8 |
| 20260505013502 | 59 | 21 | 1.7 | 5.2 | 0.00 | 0.03 | 0.01 | 68 | 1019.8 |
| 20260505013002 | 59 | 354 | 1.7 | 7.8 | 0.00 | 0.03 | 0.01 | 68 | 1019.8 |
| 20260505012502 | 59 | 280 | 1.7 | 7.8 | 0.00 | 0.03 | 0.01 | 69 | 1019.8 |
| 20260505012002 | 59 | 337 | 1.7 | 7.8 | 0.00 | 0.03 | 0.01 | 68 | 1019.8 |
| 20260505011504 | 59 | 359 | 1.7 | 5.2 | 0.00 | 0.03 | 0.01 | 69 | 1019.9 |
| 20260505011004 | 59 | 307 | 0.9 | 5.2 | 0.00 | 0.03 | 0.01 | 70 | 1019.9 |
| 20260505010502 | 59 | 310 | 1.7 | 5.2 | 0.00 | 0.03 | 0.01 | 69 | 1019.9 |
| 20260505010005 | 60 | 272 | 1.7 | 4.3 | 0.00 | 0.03 | 0.01 | 69 | 1019.7 |
| 20260505005502 | 60 | 268 | 0.9 | 5.2 | 0.00 | 0.03 | 0.01 | 69 | 1019.7 |
| 20260505005004 | 60 | 244 | 1.7 | 5.2 | 0.00 | 0.03 | 0.01 | 69 | 1019.7 |
| 20260505004501 | 60 | 281 | 0.9 | 3.5 | 0.00 | 0.03 | 0.01 | 69 | 1019.6 |
| 20260505004001 | 60 | 322 | 0.9 | 4.3 | 0.00 | 0.03 | 0.01 | 69 | 1019.7 |
| 20260505003505 | 60 | 324 | 0.9 | 4.3 | 0.00 | 0.03 | 0.01 | 70 | 1019.6 |
| 20260505003002 | 59 | 305 | 0.9 | 4.3 | 0.00 | 0.03 | 0.01 | 71 | 1019.5 |
| 20260505002502 | 59 | 274 | 1.7 | 4.3 | 0.00 | 0.03 | 0.01 | 71 | 1019.5 |
| 20260505002002 | 59 | 359 | 1.7 | 4.3 | 0.00 | 0.03 | 0.01 | 70 | 1019.4 |
| 20260505001502 | 59 | 359 | 0.9 | 7.0 | 0.00 | 0.03 | 0.01 | 71 | 1019.4 |
| 20260505001003 | 59 | 344 | 1.7 | 7.0 | 0.00 | 0.03 | 0.01 | 72 | 1019.4 |
| 20260505000502 | 58 | 260 | 0.9 | 5.2 | 0.00 | 0.03 | 0.01 | 72 | 1019.3 |
| 20260505000004 | 58 | 324 | 1.7 | 7.0 | 0.00 | 0.03 | 0.01 | 71 | 1019.3 |
| 20260504235502 | 59 | 301 | 0.9 | 7.0 | 0.00 | 0.03 | 0.01 | 72 | 1019.2 |
| 20260504235003 | 59 | 275 | 0.9 | 7.0 | 0.00 | 0.03 | 0.01 | 73 | 1019.1 |
| 20260504234501 | 58 | 311 | 1.7 | 7.0 | 0.00 | 0.03 | 0.01 | 74 | 1019.0 |
| 20260504234002 | 58 | 345 | 1.7 | 5.2 | 0.00 | 0.03 | 0.01 | 75 | 1019.0 |
| 20260504233502 | 58 | 328 | 1.7 | 5.2 | 0.00 | 0.03 | 0.01 | 77 | 1019.0 |
| 20260504233002 | 58 | 359 | 1.7 | 5.2 | 0.00 | 0.03 | 0.01 | 77 | 1019.0 |
| 20260504232501 | 57 | 323 | 0.9 | 5.2 | 0.00 | 0.03 | 0.01 | 79 | 1019.0 |
| 20260504232013 | 57 | 310 | 2.6 | 5.2 | 0.00 | 0.03 | 0.01 | 79 | 1019.0 |
| 20260504231502 | 57 | 326 | 1.7 | 5.2 | 0.00 | 0.03 | 0.01 | 80 | 1018.8 |
| 20260504231004 | 57 | 326 | 0.9 | 5.2 | 0.00 | 0.03 | 0.01 | 82 | 1018.8 |
| 20260504230502 | 56 | 291 | 1.7 | 4.3 | 0.00 | 0.03 | 0.01 | 82 | 1018.8 |
| 20260504230005 | 56 | 318 | 0.9 | 5.2 | 0.00 | 0.03 | 0.01 | 84 | 1018.6 |
| 20260504225501 | 56 | 9 | 0.9 | 5.2 | 0.00 | 0.03 | 0.01 | 84 | 1018.6 |
| 20260504225003 | 56 | 277 | 1.7 | 4.3 | 0.00 | 0.03 | 0.01 | 86 | 1018.5 |
| 20260504224502 | 55 | 311 | 0.9 | 4.3 | 0.00 | 0.03 | 0.01 | 87 | 1018.5 |
| 20260504224002 | 55 | 314 | 1.7 | 4.3 | 0.00 | 0.03 | 0.01 | 88 | 1018.4 |
| 20260504223504 | 55 | 341 | 0.9 | 3.5 | 0.00 | 0.03 | 0.01 | 88 | 1018.3 |
| 20260504223002 | 54 | 337 | 0.9 | 3.5 | 0.00 | 0.03 | 0.01 | 89 | 1018.3 |
| 20260504222502 | 54 | 332 | 0.0 | 4.3 | 0.00 | 0.03 | 0.01 | 90 | 1018.1 |
| 20260504222003 | 54 | 310 | 0.9 | 4.3 | 0.00 | 0.03 | 0.01 | 90 | 1018.1 |
| 20260504221502 | 54 | 354 | 0.9 | 3.5 | 0.00 | 0.03 | 0.01 | 91 | 1018.0 |
| 20260504221002 | 53 | 328 | 0.9 | 3.5 | 0.00 | 0.03 | 0.01 | 91 | 1018.0 |
| 20260504220502 | 53 | 348 | 0.9 | 3.5 | 0.00 | 0.03 | 0.01 | 92 | 1017.9 |
| 20260504220004 | 53 | 318 | 0.0 | 2.6 | 0.00 | 0.03 | 0.01 | 92 | 1017.8 |
| 20260504215502 | 53 | 359 | 0.9 | 2.6 | 0.00 | 0.03 | 0.01 | 92 | 1017.8 |
| 20260504215002 | 53 | 348 | 0.9 | 2.6 | 0.00 | 0.03 | 0.01 | 92 | 1017.7 |
| 20260504214505 | 53 | 322 | 0.0 | 2.6 | 0.00 | 0.03 | 0.01 | 92 | 1017.6 |
| 20260504214003 | 53 | 325 | 0.9 | 2.6 | 0.00 | 0.03 | 0.01 | 92 | 1017.5 |
| 20260504213503 | 53 | 326 | 0.9 | 2.6 | 0.00 | 0.03 | 0.01 | 92 | 1017.4 |
| 20260504213002 | 53 | 320 | 0.9 | 2.6 | 0.01 | 0.03 | 0.01 | 92 | 1017.3 |
| 20260504212502 | 53 | 320 | 0.0 | 2.6 | 0.01 | 0.03 | 0.01 | 92 | 1017.3 |
| 20260504212002 | 53 | 328 | 0.9 | 2.6 | 0.01 | 0.03 | 0.01 | 92 | 1017.2 |
| 20260504211502 | 53 | 340 | 0.0 | 1.7 | 0.01 | 0.03 | 0.01 | 92 | 1017.1 |
| 20260504211002 | 53 | 337 | 0.9 | 2.6 | 0.01 | 0.03 | 0.01 | 92 | 1017.0 |
| 20260504210505 | 53 | 320 | 0.9 | 2.6 | 0.01 | 0.03 | 0.01 | 92 | 1016.9 |
| 20260504210005 | 53 | 313 | 0.9 | 1.7 | 0.01 | 0.03 | 0.01 | 92 | 1016.7 |
| 20260504205503 | 53 | 334 | 0.9 | 1.7 | 0.01 | 0.03 | 0.01 | 92 | 1016.7 |
| 20260504205003 | 53 | 326 | 0.9 | 2.6 | 0.01 | 0.03 | 0.01 | 92 | 1016.7 |
| 20260504204503 | 53 | 349 | 0.9 | 2.6 | 0.01 | 0.03 | 0.01 | 92 | 1016.7 |
| 20260504204002 | 54 | 344 | 0.9 | 1.7 | 0.01 | 0.03 | 0.01 | 92 | 1016.7 |
| 20260504203503 | 54 | 339 | 0.0 | 1.7 | 0.01 | 0.03 | 0.01 | 92 | 1016.6 |
| 20260504203005 | 54 | 339 | 0.0 | 1.7 | 0.00 | 0.02 | 0.00 | 92 | 1016.5 |
| 20260504202505 | 54 | 339 | 0.9 | 1.7 | 0.00 | 0.02 | 0.00 | 92 | 1016.4 |
| 20260504202003 | 54 | 339 | 0.9 | 1.7 | 0.00 | 0.02 | 0.00 | 91 | 1016.2 |
| 20260504201502 | 54 | 337 | 0.0 | 2.6 | 0.00 | 0.02 | 0.00 | 91 | 1016.1 |
| 20260504201002 | 54 | 337 | 0.0 | 2.6 | 0.00 | 0.02 | 0.00 | 92 | 1016.1 |
| 20260504200502 | 54 | 337 | 0.0 | 1.7 | 0.00 | 0.02 | 0.00 | 91 | 1016.1 |
| 20260504200005 | 54 | 337 | 0.0 | 1.7 | 0.00 | 0.02 | 0.00 | 91 | 1016.1 |
| 20260504195501 | 54 | 337 | 0.0 | 2.6 | 0.00 | 0.02 | 0.00 | 91 | 1016.0 |
| 20260504195002 | 54 | 337 | 0.9 | 2.6 | 0.00 | 0.02 | 0.00 | 91 | 1015.9 |
| 20260504194502 | 54 | 349 | 0.9 | 2.6 | 0.00 | 0.02 | 0.00 | 91 | 1015.8 |
| 20260504194005 | 54 | 359 | 0.9 | 3.5 | 0.00 | 0.02 | 0.00 | 90 | 1015.7 |
| 20260504193501 | 54 | 297 | 0.9 | 3.5 | 0.00 | 0.02 | 0.00 | 90 | 1015.6 |
| 20260504193002 | 54 | 306 | 0.9 | 3.5 | 0.00 | 0.02 | 0.00 | 89 | 1015.7 |
| 20260504192502 | 54 | 354 | 0.9 | 2.6 | 0.00 | 0.02 | 0.00 | 89 | 1015.7 |
| 20260504192003 | 54 | 354 | 0.9 | 2.6 | 0.00 | 0.02 | 0.00 | 89 | 1015.6 |
| 20260504191504 | 54 | 10 | 0.0 | 1.7 | 0.00 | 0.02 | 0.00 | 89 | 1015.5 |
| 20260504191002 | 54 | 350 | 0.0 | 1.7 | 0.00 | 0.02 | 0.00 | 89 | 1015.5 |
| 20260504190502 | 54 | 354 | 0.0 | 1.7 | 0.00 | 0.02 | 0.00 | 89 | 1015.3 |
| 20260504190008 | 54 | 354 | 0.0 | 2.6 | 0.00 | 0.02 | 0.00 | 89 | 1015.3 |
| 20260504185503 | 54 | 349 | 0.0 | 2.6 | 0.00 | 0.02 | 0.00 | 89 | 1015.1 |
| 20260504185002 | 55 | 348 | 0.9 | 2.6 | 0.00 | 0.02 | 0.00 | 88 | 1015.1 |
| 20260504184508 | 55 | 344 | 0.9 | 2.6 | 0.00 | 0.02 | 0.00 | 88 | 1015.0 |
| 20260504184002 | 55 | 347 | 0.9 | 2.6 | 0.00 | 0.02 | 0.00 | 88 | 1015.0 |
| 20260504183502 | 55 | 336 | 0.9 | 2.6 | 0.00 | 0.02 | 0.00 | 87 | 1014.9 |
| 20260504183002 | 54 | 345 | 0.9 | 2.6 | 0.00 | 0.02 | 0.00 | 87 | 1014.8 |
| 20260504182501 | 54 | 327 | 0.9 | 2.6 | 0.00 | 0.02 | 0.00 | 87 | 1014.8 |
| 20260504182002 | 54 | 318 | 0.9 | 2.6 | 0.00 | 0.02 | 0.00 | 87 | 1014.8 |
| 20260504181502 | 54 | 359 | 0.9 | 2.6 | 0.00 | 0.02 | 0.00 | 86 | 1014.8 |
| 20260504181002 | 54 | 359 | 0.9 | 2.6 | 0.00 | 0.02 | 0.00 | 86 | 1014.7 |
| 20260504180502 | 54 | 4 | 0.0 | 2.6 | 0.00 | 0.02 | 0.00 | 86 | 1014.7 |
| 20260504180004 | 54 | 359 | 0.9 | 2.6 | 0.00 | 0.02 | 0.00 | 86 | 1014.6 |
| 20260504175500 | 54 | 359 | 0.9 | 2.6 | 0.00 | 0.02 | 0.00 | 86 | 1014.5 |
| 20260504175001 | 54 | 312 | 1.7 | 2.6 | 0.00 | 0.02 | 0.00 | 85 | 1014.5 |
| 20260504174501 | 54 | 17 | 0.9 | 2.6 | 0.00 | 0.02 | 0.00 | 85 | 1014.6 |
| 20260504174001 | 55 | 8 | 0.9 | 2.6 | 0.00 | 0.02 | 0.00 | 85 | 1014.5 |
| 20260504173503 | 55 | 8 | 0.9 | 3.5 | 0.00 | 0.02 | 0.00 | 85 | 1014.6 |
| 20260504173000 | 55 | 354 | 0.9 | 3.5 | 0.00 | 0.02 | 0.00 | 85 | 1014.5 |
| 20260504172500 | 55 | 8 | 0.9 | 2.6 | 0.00 | 0.02 | 0.00 | 84 | 1014.5 |
| 20260504172001 | 55 | 345 | 0.0 | 2.6 | 0.00 | 0.02 | 0.00 | 84 | 1014.5 |
| 20260504171501 | 55 | 348 | 0.9 | 2.6 | 0.00 | 0.02 | 0.00 | 84 | 1014.5 |
| 20260504171003 | 55 | 4 | 0.9 | 2.6 | 0.00 | 0.02 | 0.00 | 84 | 1014.5 |
| 20260504170500 | 55 | 359 | 0.9 | 2.6 | 0.00 | 0.02 | 0.00 | 84 | 1014.4 |
| 20260504151000 | 54 | 337 | 0.9 | 2.6 | 0.00 | 0.02 | 0.00 | 83 | 1013.7 |
| 20260504150501 | 55 | 347 | 0.9 | 2.6 | 0.00 | 0.02 | 0.00 | 83 | 1013.7 |
| 20260504141002 | 56 | 359 | 0.9 | 2.6 | 0.00 | 0.02 | 0.00 | 81 | 1013.3 |
| 20260504140501 | 56 | 343 | 0.9 | 2.6 | 0.00 | 0.02 | 0.00 | 81 | 1013.3 |
| 20260504130504 | 57 | 325 | 1.7 | 4.3 | 0.00 | 0.02 | 0.00 | 80 | 1012.9 |
| 20260504110503 | 58 | 23 | 1.7 | 5.2 | 0.00 | 0.02 | 0.02 | 82 | 1011.8 |